When you browse on this site, cookies collect data to enhance your experience and personalize the content and advertising you see.
Visit our Privacy Policy to learn more. By continuing to use the site, you agree to this use of cookies and data.
  • In Hungary
  • List of Countries
  • For 7 days
  • Water Temperature
  • Satellite Maps
  • Weather Map
  • News
  • Weather Widgets
  • user-avatar
    Login

    Hourly Weather Uyutne

    Today, 16 July, Tuesday

    Time Temperature Precipitation Wind Pressure Humidity
    00:00 +21°C° 0 mm 3 mps 753 mmHg 69%
    01:00 +20°C° 0 mm 2 mps 754 mmHg 71%
    02:00 +21°C° 0 mm 1 mps 754 mmHg 72%
    03:00 +20°C° 0.3 mm 2 mps 754 mmHg 73%
    04:00 +19°C° 0.3 mm 2 mps 754 mmHg 74%
    05:00 +19°C° 0.3 mm 3 mps 753 mmHg 75%
    06:00 +21°C° 0 mm 2 mps 754 mmHg 68%
    07:00 +24°C° 0 mm 2 mps 754 mmHg 60%
    08:00 +26°C° 0 mm 2 mps 754 mmHg 53%
    09:00 +27°C° 0 mm 3 mps 754 mmHg 50%
    10:00 +28°C° 0 mm 4 mps 754 mmHg 47%
    11:00 +29°C° 0 mm 5 mps 754 mmHg 43%
    12:00 +29°C° 0 mm 5 mps 754 mmHg 42%
    13:00 +29°C° 0 mm 5 mps 754 mmHg 40%
    14:00 +29°C° 0 mm 6 mps 754 mmHg 39%
    15:00 +29°C° 0 mm 6 mps 754 mmHg 42%
    16:00 +28°C° 0 mm 6 mps 754 mmHg 45%
    17:00 +27°C° 0 mm 6 mps 754 mmHg 48%
    18:00 +26°C° 0 mm 5 mps 754 mmHg 55%
    19:00 +23°C° 0 mm 4 mps 754 mmHg 63%
    20:00 +21°C° 0 mm 3 mps 755 mmHg 70%
    21:00 +21°C° 0 mm 3 mps 755 mmHg 72%
    22:00 +21°C° 0 mm 3 mps 755 mmHg 74%
    23:00 +20°C° 0 mm 2 mps 755 mmHg 76%

    Tomorrow, 17 July, Wednesday

    Time Temperature Precipitation Wind Pressure Humidity
    00:00 +20°C° 0 mm 2 mps 755 mmHg 77%
    01:00 +20°C° 0 mm 2 mps 755 mmHg 78%
    02:00 +19°C° 0 mm 2 mps 755 mmHg 79%
    03:00 +20°C° 0 mm 2 mps 755 mmHg 79%
    04:00 +20°C° 0 mm 2 mps 754 mmHg 79%
    05:00 +20°C° 0 mm 2 mps 754 mmHg 79%
    06:00 +23°C° 0 mm 2 mps 754 mmHg 69%
    07:00 +25°C° 0 mm 1 mps 755 mmHg 59%
    08:00 +26°C° 0 mm 1 mps 755 mmHg 49%
    09:00 +27°C° 0 mm 2 mps 755 mmHg 45%
    10:00 +28°C° 0 mm 2 mps 755 mmHg 42%
    11:00 +29°C° 0 mm 3 mps 755 mmHg 38%
    12:00 +30°C° 0 mm 4 mps 755 mmHg 37%
    13:00 +30°C° 0 mm 5 mps 755 mmHg 36%
    14:00 +30°C° 0 mm 5 mps 755 mmHg 35%
    15:00 +30°C° 0 mm 6 mps 754 mmHg 35%
    16:00 +30°C° 0 mm 6 mps 754 mmHg 35%
    17:00 +29°C° 0 mm 6 mps 754 mmHg 35%
    18:00 +27°C° 0 mm 6 mps 754 mmHg 43%
    19:00 +25°C° 0 mm 5 mps 754 mmHg 49%
    20:00 +23°C° 0 mm 5 mps 754 mmHg 56%
    21:00 +22°C° 0 mm 4 mps 755 mmHg 61%
    22:00 +22°C° 0 mm 4 mps 755 mmHg 65%
    23:00 +22°C° 0 mm 4 mps 755 mmHg 70%

    Day after tomorrow, 18 July, Thursday

    Time Temperature Precipitation Wind Pressure Humidity
    00:00 +21°C° 0 mm 4 mps 755 mmHg 68%
    01:00 +21°C° 0 mm 4 mps 755 mmHg 67%
    02:00 +21°C° 0 mm 3 mps 755 mmHg 66%
    03:00 +20°C° 0 mm 3 mps 755 mmHg 67%
    04:00 +20°C° 0 mm 3 mps 755 mmHg 68%
    05:00 +20°C° 0 mm 3 mps 755 mmHg 69%
    06:00 +22°C° 0 mm 3 mps 755 mmHg 61%
    07:00 +25°C° 0 mm 3 mps 756 mmHg 52%
    08:00 +27°C° 0 mm 4 mps 756 mmHg 44%
    09:00 +28°C° 0 mm 3 mps 756 mmHg 40%
    10:00 +29°C° 0 mm 3 mps 756 mmHg 37%
    11:00 +30°C° 0 mm 3 mps 757 mmHg 33%
    12:00 +30°C° 0 mm 4 mps 757 mmHg 33%
    13:00 +32°C° 0 mm 5 mps 757 mmHg 32%
    14:00 +32°C° 0 mm 6 mps 757 mmHg 32%
    15:00 +30°C° 0 mm 6 mps 757 mmHg 34%
    16:00 +30°C° 0 mm 6 mps 757 mmHg 35%
    17:00 +29°C° 0 mm 6 mps 757 mmHg 37%
    18:00 +28°C° 0 mm 6 mps 757 mmHg 45%
    19:00 +26°C° 0 mm 5 mps 758 mmHg 53%
    20:00 +23°C° 0 mm 4 mps 758 mmHg 61%
    21:00 +22°C° 0 mm 4 mps 758 mmHg 63%
    22:00 +22°C° 0 mm 4 mps 758 mmHg 66%
    23:00 +21°C° 0 mm 4 mps 759 mmHg 69%

    19 July, Friday

    Time Temperature Precipitation Wind Pressure Humidity
    00:00 +21°C° 0 mm 3 mps 759 mmHg 70%
    01:00 +20°C° 0 mm 3 mps 759 mmHg 71%
    02:00 +20°C° 0 mm 3 mps 759 mmHg 72%
    03:00 +20°C° 0 mm 3 mps 759 mmHg 72%
    04:00 +20°C° 0 mm 3 mps 759 mmHg 72%
    05:00 +20°C° 0 mm 3 mps 759 mmHg 72%
    06:00 +22°C° 0 mm 3 mps 759 mmHg 62%
    07:00 +25°C° 0 mm 3 mps 760 mmHg 51%
    08:00 +27°C° 0 mm 3 mps 760 mmHg 41%
    09:00 +28°C° 0 mm 3 mps 760 mmHg 38%
    10:00 +30°C° 0 mm 3 mps 760 mmHg 35%
    11:00 +31°C° 0 mm 3 mps 760 mmHg 32%
    12:00 +32°C° 0 mm 4 mps 760 mmHg 32%
    13:00 +32°C° 0 mm 5 mps 760 mmHg 31%
    14:00 +32°C° 0 mm 6 mps 760 mmHg 31%
    15:00 +32°C° 0 mm 6 mps 760 mmHg 31%
    16:00 +32°C° 0 mm 5 mps 760 mmHg 32%
    17:00 +32°C° 0 mm 5 mps 760 mmHg 32%
    18:00 +29°C° 0 mm 5 mps 760 mmHg 40%
    19:00 +27°C° 0 mm 5 mps 760 mmHg 48%
    20:00 +25°C° 0 mm 4 mps 761 mmHg 56%
    21:00 +23°C° 0 mm 4 mps 761 mmHg 57%
    22:00 +22°C° 0 mm 4 mps 761 mmHg 57%
    23:00 +22°C° 0 mm 3 mps 761 mmHg 58%

    20 July, Saturday

    Time Temperature Precipitation Wind Pressure Humidity
    00:00 +22°C° 0 mm 3 mps 761 mmHg 59%
    01:00 +21°C° 0 mm 3 mps 761 mmHg 60%
    02:00 +21°C° 0 mm 3 mps 761 mmHg 61%
    03:00 +21°C° 0 mm 3 mps 761 mmHg 60%
    04:00 +21°C° 0 mm 3 mps 761 mmHg 60%
    05:00 +21°C° 0 mm 3 mps 761 mmHg 60%
    06:00 +24°C° 0 mm 3 mps 761 mmHg 52%
    07:00 +27°C° 0 mm 3 mps 762 mmHg 44%
    08:00 +29°C° 0 mm 3 mps 762 mmHg 36%
    09:00 +30°C° 0 mm 3 mps 762 mmHg 33%
    10:00 +32°C° 0 mm 2 mps 762 mmHg 30%
    11:00 +34°C° 0 mm 2 mps 762 mmHg 27%
    12:00 +34°C° 0 mm 3 mps 762 mmHg 28%
    13:00 +34°C° 0 mm 4 mps 762 mmHg 29%
    14:00 +34°C° 0 mm 5 mps 762 mmHg 30%
    15:00 +34°C° 0 mm 5 mps 762 mmHg 30%
    16:00 +34°C° 0 mm 6 mps 762 mmHg 30%
    17:00 +33°C° 0 mm 6 mps 762 mmHg 30%
    18:00 +30°C° 0 mm 5 mps 762 mmHg 37%
    19:00 +28°C° 0 mm 5 mps 762 mmHg 44%
    20:00 +26°C° 0 mm 4 mps 762 mmHg 52%
    21:00 +25°C° 0 mm 4 mps 762 mmHg 54%
    22:00 +24°C° 0 mm 3 mps 762 mmHg 57%
    23:00 +22°C° 0 mm 3 mps 762 mmHg 59%

    21 July, Sunday

    Time Temperature Precipitation Wind Pressure Humidity
    00:00 +22°C° 0 mm 3 mps 762 mmHg 58%
    01:00 +22°C° 0 mm 3 mps 762 mmHg 56%
    02:00 +22°C° 0 mm 3 mps 762 mmHg 55%
    03:00 +22°C° 0 mm 3 mps 762 mmHg 54%
    04:00 +22°C° 0 mm 3 mps 762 mmHg 52%
    05:00 +22°C° 0 mm 3 mps 762 mmHg 51%
    06:00 +25°C° 0 mm 3 mps 762 mmHg 44%
    07:00 +28°C° 0 mm 3 mps 762 mmHg 38%
    08:00 +30°C° 0 mm 3 mps 762 mmHg 32%
    09:00 +33°C° 0 mm 3 mps 762 mmHg 29%
    10:00 +34°C° 0 mm 3 mps 762 mmHg 27%
    11:00 +35°C° 0 mm 3 mps 762 mmHg 25%
    12:00 +35°C° 0 mm 4 mps 762 mmHg 25%
    13:00 +35°C° 0 mm 5 mps 762 mmHg 25%
    14:00 +36°C° 0 mm 6 mps 762 mmHg 25%
    15:00 +35°C° 0 mm 6 mps 762 mmHg 25%
    16:00 +35°C° 0 mm 6 mps 762 mmHg 26%
    17:00 +35°C° 0 mm 6 mps 762 mmHg 26%
    18:00 +33°C° 0 mm 5 mps 762 mmHg 31%
    19:00 +30°C° 0 mm 4 mps 762 mmHg 36%
    20:00 +28°C° 0 mm 4 mps 762 mmHg 41%
    21:00 +27°C° 0 mm 3 mps 762 mmHg 44%
    22:00 +26°C° 0 mm 3 mps 762 mmHg 48%
    23:00 +25°C° 0 mm 2 mps 762 mmHg 51%
    Show more